Regional Weather Roundup
Issued by NWS State College, PA

Home | Current Version | Previous Version | Text Only | Print | Product List | Glossary On
Versions: 1 2 3 4 5 6 7 8 9 10 11 12 13 14 15 16 17 18 19 20 21 22 23 24 25 26 27 28 29 30 31 32 33 34 35 36 37 38 39 40 41 42 43 44 45 46 47 48 49 50
897
ASUS41 KCTP 250410
RWRCTP

REGIONAL WEATHER ROUNDUP
NATIONAL WEATHER SERVICE STATE COLLEGE PA
1100 PM EST FRI NOV 24 2017

Note: "fair" indicates few or no clouds below 12,000 feet with no
significant weather and/or obstructions to visibility.

* = STATION THAT DOES NOT REPORT PRECIPITATION /E.G. RAIN...SNOW...ETC/
    THUNDER OR FOG.

PAZ002>004-007>009-013>016-020>023-029>032-250500-
WESTERN PENNSYLVANIA

CITY           SKY/WX    TMP DP  RH WIND       PRES   REMARKS
ERIE           PTCLDY    51  23  33 S24G35    29.63F
MEADVILLE      PTCLDY    46  22  38 S16G23    29.70F
FRANKLIN*      PTCLDY    42  21  43 S15       29.73F
NEW CASTLE     FAIR      45  22  40 VRB6      29.74F
BEAVER COUNTY  NOT AVBL
BUTLER*        PTCLDY    45  19  35 S8        29.78F
PITTSBURGH INT PTCLDY    42  20  41 S8        29.77F
PITTSBURGH     CLEAR     43  18  36 S9        29.79F
INDIANA*       CLEAR     34  23  64 CALM      29.84S
LATROBE        CLEAR     32  23  69 CALM      29.82F
WASHINGTON CO* PTCLDY    37  22  54 S6        29.82F
$$

PAZ004>006-010>012-017>019-024>028-033>037-041-042-045-046-049>053-250500-
CENTRAL PENNSYLVANIA

CITY           SKY/WX    TMP DP  RH WIND       PRES   REMARKS
BRADFORD       CLOUDY    45  18  34 S8        29.74F
DUBOIS         CLOUDY    44  17  33 SW7       29.77F
CLEARFIELD     CLOUDY    34  23  64 CALM      29.80F
JOHNSTOWN      CLEAR     45  20  36 SW7       29.80F
ALTOONA        CLEAR     44  23  43 S5        29.84F
STATE COLLEGE  CLOUDY    41  24  52 SW6       29.83F
WILLIAMSPORT   CLEAR     42  25  50 E7        29.85F
SELINSGROVE    CLEAR     30  26  85 CALM      29.89F
FT INDIANTOWN  CLEAR     30  27  89 CALM      29.92F
CAPITAL CITY   CLEAR     36  27  69 CALM      29.92F
HARRISBURG     CLEAR     36  33  89 SE5       29.92F
YORK           CLEAR     40  29  64 S3        29.91F
$$

PAZ038>040-043-044-047-048-054-055-060>062-067>071-250500-
EASTERN PENNSYLVANIA

CITY           SKY/WX    TMP DP  RH WIND       PRES   REMARKS
SCRANTON       CLEAR     42  24  49 SW10      29.86F
MOUNT POCONO   CLEAR     35  21  56 SW10      29.87F
ALLENTOWN      CLEAR     30  23  75 NW5       29.94S
QUAKERTOWN*    CLEAR     32  27  80 CALM      29.94F
READING        CLEAR     39  27  62 SW5       29.93S
LANCASTER      CLEAR     36  27  69 E3        29.93F
COATESVILLE    CLEAR     34  30  86 CALM      29.94F
POTTSTOWN      CLEAR     38  32  79 CALM      29.95F
BLUE BELL      CLEAR     32  30  93 CALM      29.95F
DOYLESTOWN     CLEAR     37  28  70 S3        29.93F
WILLOW GROVE   NOT AVBL
NORTH PHILA    CLEAR     39  28  64 CALM      29.97S
PHILADELPHIA   CLEAR     41  32  70 S7        29.96F
$$




USA.gov is the U.S. government's official web portal to all federal, state and local government web resources and services.